Weather observations for the past three days for
Stevens Point Municipal Airport
Imperial (Metric)
Date Time (cdt) Wind (mph) Vis. (mi.) Weather Sky Cond. Temperature (ºF) Relative Humidity Wind Chill (°F) Heat Index (°F) Pressure Precipitation (in)
Air Dwpt 6 hour altimeter (in) sea level (mb) 1 hr 3 hr 6 hr
Max. Min.
13 13:35 S 9 10.00 Partly Cloudy SCT030 SCT038 84.2 70.2 63% 89 30.09 0.0
13 13:15 SE 9 10.00 Mostly Cloudy SCT028 BKN035 BKN060 85.3 70.7 62% 90 30.09 0.0
13 12:55 SE 9 10.00 Mostly Cloudy BKN028 BKN034 BKN048 84.4 69.6 85.6 65.5 61% 89 30.1 0.0
13 12:35 S 10 10.00 Partly Cloudy SCT028 SCT033 SCT041 84.9 70.3 62% 90 30.09 0.0
13 12:15 S 10 10.00 Partly Cloudy SCT028 SCT033 SCT042 83.5 70 64% 88 30.1 0.0
13 11:55 SW 8 G 16 10.00 Mostly Cloudy SCT028 SCT033 BKN050 83.5 70 64% 88 30.1 0.0
13 11:35 S 13 10.00 Partly Cloudy SCT027 SCT050 82.9 69.3 63% 87 30.11 0.0
13 11:15 S 9 10.00 Partly Cloudy SCT027 SCT033 SCT048 82.8 68.9 63% 86 30.11 0.0
13 10:55 S 9 G 17 10.00 Mostly Cloudy BKN027 BKN045 BKN055 82.2 68.5 63% 85 30.11 0.0
13 10:35 SE 9 10.00 Partly Cloudy SCT027 81.5 68.5 65% 85 30.11 0.0
13 10:15 S 8 10.00 Fair CLR 81.3 68.4 65% 84 30.11 0.0
13 09:55 S 8 10.00 Fair CLR 81 68.2 65% 84 30.12 0.0
13 09:35 S 8 10.00 Fair CLR 79.7 67.1 65% 82 30.13 0.0
13 09:15 S 12 10.00 Fair CLR 79 66.7 66% 81 30.14 0.0
13 08:55 S 10 10.00 Fair CLR 77.9 65.7 66% 80 30.14 0.0
13 08:35 S 10 10.00 Fair CLR 77.5 65.7 67% 79 30.14 0.0
13 08:15 S 7 10.00 Fair CLR 76.1 65.3 69% 78 30.14 0.0
13 07:55 S 5 10.00 Fair CLR 74.3 64.8 72% 30.14 0.0
13 07:35 S 5 10.00 Fair CLR 72 64.6 78% 30.14 0.0
13 07:15 Calm 10.00 Fair CLR 69.4 64.6 85% 30.14 0.0
13 06:55 Calm 10.00 Fair CLR 65.3 63.7 68.2 60.3 95% 30.14 0.0
13 06:35 Calm 10.00 Fair CLR 62.8 62.4 99% 30.14 0.0
13 06:15 Calm 10.00 Fair CLR 61.5 61 98% 30.14 0.0
13 05:55 Calm 10.00 Fair CLR 60.3 59.9 99% 30.14 0.0
13 05:35 Calm 10.00 Fair CLR 61.3 61 99% 30.14 0.0
13 05:15 Calm 10.00 Fair CLR 61 60.8 99% 30.13 0.0
13 04:55 Calm 10.00 Fair CLR 61.2 60.8 99% 30.13 0.0
13 04:35 Calm 10.00 Fair CLR 60.3 59.9 99% 30.13 0.0
13 04:15 Calm 10.00 Fair CLR 62.6 62.1 98% 30.13 0.0
13 03:55 Calm 5.00 Fog/Mist CLR 61.5 61.2 99% 30.12 0.0
13 03:35 Calm 10.00 Fair CLR 63 62.6 99% 30.13 0.0
13 03:15 Calm 7.00 Fair CLR 63.3 63 99% 30.13 0.0
13 02:55 Calm 10.00 Fair CLR 63.9 63.1 98% 30.13 0.0
13 02:35 Calm 10.00 Fair CLR 64.4 63.5 97% 30.13 0.0
13 02:15 Calm 10.00 Fair CLR 65.8 64.2 95% 30.13 0.0
13 01:55 Calm 10.00 Fair CLR 65.5 64.9 98% 30.13 0.0
13 01:35 Calm 10.00 Fair CLR 65.8 64.4 95% 30.14 0.0
13 01:15 Calm 10.00 Fair CLR 68 65.3 91% 30.14 0.0
13 00:55 Calm 10.00 Fair CLR 66.4 64.4 84.2 66.4 93% 30.15 0.0
13 00:35 Calm 10.00 Fair CLR 67.6 64.4 89% 30.15 0.0
13 00:15 Calm 10.00 Fair CLR 70 64 82% 30.15 0.0
12 23:55 Calm 10.00 Fair CLR 71.8 65.3 80% 30.14 0.0
12 23:35 S 3 10.00 Fair CLR 72.5 65.3 78% 30.14 0.0
12 23:15 S 3 10.00 Fair CLR 72.7 65.3 78% 30.14 0.0
12 22:55 S 5 10.00 Fair CLR 73.6 65.3 75% 30.13 0.0
12 22:35 S 5 10.00 Fair CLR 73.9 65.3 75% 30.12 0.0
12 22:15 S 5 10.00 Fair CLR 74.8 65.3 72% 30.12 0.0
12 21:55 S 5 10.00 Fair CLR 75.6 65.3 71% 77 30.11 0.0
12 21:35 S 7 10.00 Fair CLR 77.4 64.8 65% 79 30.11 0.0
12 21:15 S 7 10.00 Fair CLR 77.5 64.6 64% 79 30.11 0.0
12 20:55 S 7 10.00 Fair CLR 79 64.6 61% 81 30.11 0.0
12 20:35 S 7 10.00 Fair CLR 79.9 64.8 60% 82 30.1 0.0
12 20:15 S 8 10.00 Partly Cloudy SCT060 81 64.8 58% 83 30.1 0.0
12 19:55 S 5 10.00 Fair CLR 82 64.2 55% 84 30.1 0.0
12 19:35 S 7 10.00 Fair CLR 82.9 63.5 52% 84 30.1 0.0
12 19:15 SW 5 10.00 Fair CLR 83.7 62.6 49% 85 30.1 0.0
12 18:55 SW 6 10.00 Fair CLR 84.2 61.7 87.4 83.7 47% 85 30.1 0.0
12 18:35 SW 5 10.00 Fair CLR 83.8 61.3 47% 84 30.09 0.0
12 18:15 W 7 10.00 Fair CLR 85.5 60.8 44% 86 30.09 0.0
12 17:55 SW 7 10.00 Fair CLR 86.7 60.4 41% 87 30.09 0.0
12 17:35 SW 5 10.00 Fair CLR 86.7 59.4 40% 86 30.09 0.0
12 17:15 W 8 10.00 Partly Cloudy SCT055 87.1 59.2 39% 86 30.08 0.0
12 16:55 SW 8 10.00 Partly Cloudy SCT055 87.3 60.8 41% 87 30.09 0.0
12 16:35 W 6 10.00 Partly Cloudy SCT055 SCT070 SCT085 86.9 60.4 41% 87 30.09 0.0
12 16:15 W 6 10.00 Mostly Cloudy SCT055 BKN065 BKN080 86.9 60.6 41% 87 30.1 0.0
12 15:55 SW 5 10.00 Partly Cloudy SCT050 SCT065 85.6 61.9 45% 86 30.1 0.0
12 15:35 W 3 10.00 Partly Cloudy SCT050 SCT085 85.3 61.9 45% 86 30.1 0.0
12 15:15 SW 7 10.00 Mostly Cloudy BKN050 85.1 62.8 47% 86 30.1 0.0
12 14:55 SW 5 10.00 Fair CLR 85.8 62.4 46% 86 30.1 0.0
12 14:35 SW 8 10.00 Partly Cloudy SCT050 86.4 63.1 46% 87 30.11 0.0
12 14:15 SW 6 10.00 Fair CLR 85.3 63.1 48% 86 30.11 0.0
12 13:55 SW 6 10.00 Partly Cloudy SCT047 SCT055 84.2 64.4 51% 86 30.12 0.0
12 13:35 SW 5 10.00 Partly Cloudy SCT045 85.1 63.7 49% 86 30.12 0.0
12 13:15 SW 5 10.00 Fair CLR 85.8 62.1 45% 86 30.13 0.0
12 12:55 NW 5 10.00 Partly Cloudy SCT041 SCT046 SCT060 84.7 62.8 84.9 68 48% 86 30.13 0.0
12 12:35 W 3 10.00 Mostly Cloudy SCT037 SCT046 BKN085 84.2 63.7 50% 85 30.14 0.0
12 12:15 W 7 10.00 Mostly Cloudy SCT037 BKN046 82.6 65.5 56% 85 30.14 0.0
12 11:55 SW 7 10.00 Partly Cloudy SCT039 83.1 65.5 55% 85 30.14 0.0
12 11:35 W 5 10.00 Partly Cloudy SCT070 SCT080 82 65.5 57% 84 30.14 0.0
12 11:15 W 5 10.00 Fair CLR 80.8 65.7 60% 83 30.14 0.0
12 10:55 W 6 10.00 Fair CLR 81.5 65.7 59% 84 30.14 0.0
12 10:35 W 5 10.00 Fair CLR 80.8 66.6 62% 83 30.14 0.0
12 10:15 W 5 10.00 Fair CLR 79.7 66.4 64% 82 30.14 0.0
12 09:55 W 5 10.00 Fair CLR 79.5 66.2 64% 82 30.14 0.0
12 09:35 SW 5 10.00 Fair CLR 78.8 65.8 65% 81 30.14 0.0
12 09:15 Calm 10.00 Fair CLR 77.9 65.5 66% 80 30.14 0.0
12 08:55 SW 5 10.00 Fair CLR 76.8 65.8 69% 79 30.14 0.0
12 08:35 W 3 10.00 Fair CLR 75.7 65.5 71% 77 30.14 0.0
12 08:15 SW 3 10.00 Fair CLR 74.3 65.5 74% 30.14 0.0
12 07:55 Calm 10.00 Fair CLR 72.7 66.2 80% 30.14 0.0
12 07:35 Calm 10.00 Fair CLR 70.7 65.7 84% 30.14 0.0
12 07:15 Calm 10.00 Fair CLR 69.1 65.7 89% 30.13 0.0
12 06:55 S 3 10.00 Fair CLR 67.8 65.5 69.8 63.5 92% 30.13 0.0
12 06:35 S 3 10.00 Fair CLR 66.6 65.7 97% 30.12 0.0
12 06:15 Calm 10.00 Fair CLR 65.1 64.6 98% 30.12 0.0
12 05:55 Calm 7.00 Fair CLR 63.5 63.1 99% 30.11 0.0
12 05:35 Calm 7.00 Fair CLR 64.9 64.6 99% 30.11 0.0
12 05:15 Calm 10.00 Fair CLR 64 63.7 99% 30.11 0.0
12 04:55 Calm 7.00 Fair CLR 64.8 64.4 99% 30.11 0.0
12 04:35 Calm 7.00 Fair CLR 64.6 64.2 99% 30.1 0.0
12 04:15 Calm 10.00 Fair CLR 64.6 63.5 96% 30.1 0.0
12 03:55 Calm 10.00 Fair CLR 66.2 64.8 95% 30.1 0.0
12 03:35 Calm 10.00 Fair CLR 67.5 65.3 93% 30.1 0.0
12 03:15 SW 5 10.00 Fair CLR 67.1 65.5 95% 30.09 0.0
12 02:55 SW 6 10.00 Fair CLR 67.3 65.1 93% 30.09 0.0
12 02:35 Calm 10.00 Fair CLR 68.2 65.3 91% 30.09 0.0
12 02:15 Calm 10.00 Fair CLR 68 64.8 89% 30.09 0.0
12 01:55 Calm 10.00 Fair CLR 68.2 64.4 88% 30.1 0.0
12 01:35 Calm 10.00 Fair CLR 68.9 64 85% 30.1 0.0
12 01:15 Calm 10.00 Partly Cloudy SCT055 69.8 64.6 84% 30.1 0.0
12 00:55 Calm 10.00 Partly Cloudy SCT055 69.4 64.6 83.3 69.3 85% 30.11 0.0
12 00:35 S 3 10.00 Fair CLR 69.8 64.6 84% 30.11 0.0
12 00:15 Calm 10.00 Fair CLR 70.2 64.8 83% 30.11 0.0
11 23:55 S 3 10.00 Partly Cloudy SCT060 70.3 64.4 82% 30.11 0.0
11 23:35 Calm 10.00 Partly Cloudy SCT060 70.5 64.4 81% 30.1 0.0
11 23:15 S 3 10.00 Fair CLR 71.2 64.6 80% 30.1 0.0
11 22:55 SW 5 10.00 Fair CLR 71.6 64.8 79% 30.1 0.0
11 22:35 S 6 10.00 Partly Cloudy SCT060 SCT085 72.9 64.6 75% 30.09 0.0
11 22:15 Calm 10.00 Mostly Cloudy BKN060 BKN075 74.3 64.6 72% 30.09 0.0
11 21:55 Calm 10.00 Mostly Cloudy BKN060 BKN085 73.2 64.8 75% 30.09 0.0
11 21:35 Calm 10.00 Overcast BKN060 BKN070 OVC080 74.3 64.6 72% 30.09 0.0
11 21:15 Calm 10.00 Mostly Cloudy SCT060 BKN070 73.9 64.4 72% 30.08 0.0
11 20:55 S 3 10.00 Partly Cloudy SCT065 SCT080 76.3 64.2 66% 78 30.08 0.0
11 20:35 S 5 10.00 Overcast SCT065 OVC080 77.2 64.4 65% 79 30.08 0.0
11 20:15 S 5 10.00 Mostly Cloudy BKN080 78.1 63.1 60% 80 30.08 0.0
11 19:55 SE 5 10.00 Fair CLR 79.7 62.6 56% 81 30.08 0.0
11 19:35 Calm 10.00 Fair CLR 81 62.1 53% 82 30.08 0.0
11 19:15 SE 3 10.00 Fair CLR 81.7 61.9 51% 83 30.08 0.0
11 18:55 Calm 10.00 Fair CLR 83.3 57.6 85.1 79.9 42% 83 30.07 0.0
11 18:35 N 3 10.00 Fair CLR 83.5 56.8 40% 83 30.07 0.0
11 18:15 Calm 10.00 Fair CLR 83.1 57.9 42% 83 30.07 0.0
11 17:55 Calm 10.00 Partly Cloudy SCT085 83.7 57.6 41% 83 30.07 0.0
11 17:35 N 5 10.00 Partly Cloudy SCT060 83.8 59.2 43% 84 30.07 0.0
11 17:15 Calm 10.00 Partly Cloudy SCT060 SCT070 84 58.6 42% 84 30.07 0.0
11 16:55 W 6 10.00 Fair CLR 84.7 58.1 40% 84 30.08 0.0
11 16:35 N 3 10.00 Fair CLR 84 58.6 42% 84 30.08 0.0
11 16:15 NW 5 10.00 Partly Cloudy SCT050 83.8 58.5 42% 83 30.08 0.0
11 15:55 Calm 10.00 Partly Cloudy SCT050 84.2 58.3 41% 84 30.08 0.0
11 15:35 Calm 10.00 Mostly Cloudy BKN050 BKN060 84.2 58.5 42% 84 30.09 0.0
11 15:15 Calm 10.00 Overcast BKN050 OVC060 84 61.7 47% 85 30.09 0.0
11 14:55 Calm 10.00 Partly Cloudy SCT050 SCT060 SCT070 82.6 61 48% 83 30.09 0.0
11 14:35 N 3 10.00 Fair CLR 81.9 60.3 48% 82 30.09 0.0
11 14:15 N 5 10.00 Mostly Cloudy SCT048 BKN065 BKN100 81.7 62.8 53% 83 30.1 0.0
11 13:55 NW 3 10.00 Overcast BKN048 OVC065 80.8 59.2 48% 81 30.11 0.0
11 13:35 SW 6 10.00 Mostly Cloudy SCT042 BKN050 81.9 60.6 49% 82 30.11 0.0
11 13:15 W 3 10.00 Partly Cloudy SCT034 80.6 63.1 55% 82 30.11 0.0
11 12:55 Calm 10.00 Partly Cloudy SCT032 SCT044 SCT050 81 62.1 81.1 65.3 53% 82 30.11 0.0
11 12:35 W 5 10.00 Mostly Cloudy BKN032 BKN037 BKN045 78.8 63.7 60% 80 30.12 0.0
11 12:15 NW 5 10.00 Mostly Cloudy BKN032 BKN042 78.8 63.3 59% 80 30.12 0.0
11 11:55 Calm 10.00 Mostly Cloudy SCT029 BKN035 78.1 64.2 63% 80 30.12 0.0
11 11:35 Calm 10.00 Partly Cloudy SCT027 77.2 63.5 63% 79 30.13 0.0
11 11:15 S 7 10.00 Partly Cloudy SCT027 77.5 64.6 64% 79 30.12 0.0
11 10:55 Calm 10.00 Partly Cloudy SCT025 76.3 63.5 65% 78 30.13 0.0
11 10:35 SW 3 10.00 Fair CLR 75.6 63 65% 77 30.13 0.0
11 10:15 Calm 10.00 Fair CLR 74.5 62.2 66% 30.13 0.0
11 09:55 Calm 10.00 Fair CLR 73.9 62.1 67% 30.13 0.0
11 09:35 E 3 10.00 Fair CLR 73 61.3 67% 30.13 0.0
11 09:15 SE 5 10.00 Fair CLR 71.4 60.4 68% 30.13 0.0
11 08:55 E 6 10.00 Fair CLR 71.1 60.3 69% 30.13 0.0
11 08:35 E 7 10.00 Fair CLR 69.8 59.9 71% 30.13 0.0
11 08:15 E 7 10.00 Fair CLR 69.1 60.3 74% 30.12 0.0
11 07:55 E 7 10.00 Fair CLR 68.2 60.4 76% 30.12 0.0
11 07:35 E 7 10.00 Fair CLR 67.1 61.3 82% 30.12 0.0
11 07:15 E 3 10.00 Fair CLR 66.2 62.1 87% 30.11 0.0
11 06:55 E 3 10.00 Fair CLR 65.3 62.2 65.5 62.8 90% 30.11 0.0
11 06:35 E 3 10.00 Fair CLR 64.4 61.9 92% 30.11 0.0
11 06:15 Calm 10.00 Fair CLR 63.5 61.7 94% 30.1 0.0
11 05:55 Calm 10.00 Fair CLR 63.3 61.7 95% 30.1 0.0
11 05:35 Calm 10.00 Fair CLR 62.8 61.5 96% 30.09 0.0
11 05:15 Calm 10.00 Fair CLR 63.7 62.6 96% 30.08 0.0
11 04:55 Calm 10.00 Fair CLR 63.7 62.6 96% 30.08 0.0
11 04:35 NE 3 10.00 Fair CLR 63.7 63.3 99% 30.08 0.0
11 04:15 NE 3 10.00 Fair CLR 63.7 62.8 97% 30.08 0.0
11 03:55 Calm 10.00 Fair CLR 64.4 62.8 95% 30.07 0.0
11 03:35 Calm 10.00 Fair CLR 64.4 62.8 95% 30.07 0.0
11 03:15 E 3 10.00 Fair CLR 64 62.4 95% 30.06 0.0
11 02:55 E 5 10.00 Fair CLR 63.9 61.9 93% 30.06 0.0
11 02:35 Calm 10.00 Fair CLR 63.7 63 98% 30.06 0.0
11 02:15 Calm 10.00 Fair CLR 63.7 63 98% 30.06 0.0
11 01:55 Calm 10.00 Fair CLR 64 63.7 99% 30.06 0.0
11 01:35 NE 3 10.00 Fair CLR 63.5 62.6 97% 30.06 0.0
11 01:15 Calm 10.00 Fair CLR 65.1 63.7 95% 30.06 0.0
11 00:55 Calm 10.00 Fair CLR 65.7 63.5 78.6 65.7 93% 30.06 0.0
11 00:35 Calm 10.00 Partly Cloudy SCT050 66.6 63.7 91% 30.06 0.0
11 00:15 Calm 10.00 Mostly Cloudy BKN050 66.6 63.5 90% 30.06 0.0
10 23:55 Calm 10.00 Mostly Cloudy BKN050 67.1 63.7 89% 30.05 0.0
10 23:35 Calm 10.00 Partly Cloudy SCT050 66.6 62.8 88% 30.05 0.0
10 23:15 Calm 10.00 Fair CLR 68.7 63.1 82% 30.04 0.0
10 22:55 Calm 10.00 Fair CLR 68.2 63.5 85% 30.03 0.0
10 22:35 Calm 10.00 Fair CLR 69.1 63.7 83% 30.03 0.0
10 22:15 Calm 10.00 Fair CLR 69.8 64 82% 30.03 0.0
10 21:35 Calm 10.00 Fair CLR 70.7 64.2 80% 30.01 0.0
10 21:15 Calm 10.00 Fair CLR 72.1 64 76% 30 0.0
10 20:55 NE 3 10.00 Partly Cloudy SCT065 73.4 63.1 70% 29.99 0.0
10 20:35 Calm 10.00 Mostly Cloudy SCT065 BKN120 74.8 63.7 68% 30 0.0
10 20:15 Calm 10.00 Mostly Cloudy SCT047 SCT065 BKN120 75.6 62.4 64% 78 30 0.0
10 19:55 NE 3 10.00 Light Rain SCT050 SCT070 OVC090 76.1 61 60% 78 29.99 0.0
10 19:35 N 6 10.00 Overcast SCT060 OVC090 77.7 61.2 57% 79 29.99 0.0
10 19:15 N 5 10.00 Overcast BKN060 OVC070 78.1 62.8 59% 80 29.98 0.0
10 18:55 E 3 10.00 Mostly Cloudy BKN075 BKN080 78.8 62.1 84.4 78.8 57% 80 29.97 0.0
10 18:35 E 7 10.00 Mostly Cloudy BKN060 BKN075 79.3 61 54% 81 29.96 0.0
10 18:15 E 12 10.00 Light Rain OVC060 82.2 59.7 47% 82 29.96 0.0
10 17:55 N 8 10.00 Mostly Cloudy BKN060 BKN075 84.2 57.9 41% 84 29.95 0.0
10 17:35 NE 8 10.00 Partly Cloudy SCT060 83.7 57.6 41% 83 29.95 0.0
10 17:15 NE 7 10.00 Mostly Cloudy BKN060 BKN070 82.8 57.4 42% 82 29.95 0.0
10 16:55 NE 6 10.00 Partly Cloudy SCT060 SCT070 83.7 58.3 42% 83 29.95 0.0
10 16:35 Calm 10.00 Partly Cloudy SCT060 83.7 58.1 42% 83 29.95 0.0
10 16:15 NE 3 10.00 Partly Cloudy SCT060 82.6 57.6 43% 82 29.95 0.0
10 15:55 E 7 10.00 Partly Cloudy SCT060 83.5 58.3 42% 83 29.95 0.0
10 15:35 E 5 10.00 Fair CLR 83.3 57.2 41% 83 29.95 0.0
10 15:15 NE 12 G 16 10.00 Partly Cloudy SCT060 83.8 57.6 41% 83 29.95 0.0
10 14:55 N 6 10.00 Partly Cloudy SCT060 SCT070 SCT080 81.9 57.7 44% 82 29.96 0.0
10 14:35 NE 7 10.00 Mostly Cloudy SCT060 SCT070 BKN080 81.1 57.2 44% 81 29.96 0.0
10 14:15 N 6 G 21 10.00 Partly Cloudy SCT060 83.1 57.7 42% 83 29.96 0.0
Date Time (cdt) Wind (mph) Vis. (mi.) Weather Sky Cond. Air Dwpt Max. Min. Relative Humidity Wind Chill (°F) Heat Index (°F) altimeter (in) sea level (mb) 1 hr 3 hr 6 hr
6 hour
Temperature (ºF) Pressure Precipitation (in)